Date String (YYYY-MM-DD hh:mm:ss) UTC,Instrument flags,Ambient pressure (hPa),Sample flow (lpm),Bypass flow (lpm),Sample temperature (°C),Ambient temperature (°C),ASC tube jacket temperature (°C),LED temperature (°C),Box temperature (°C),Sample RH (%),Span deviation,Mass concentration (μg/m³),Mass concentration (μg/m³),Mass concentration (μg/m³)
DateTimeUTC,F1_M11,P_M11,Q1_M11,Q2_M11,T1_M11,T2_M11,T3_M11,T4_M11,T5_M11,U1_M11,ZSPAN_M11,X0_M11,X2_M11,X1_M11
2021-11-05 07:00:00,,0824.1,5.00,0.00,29.0,28.2,00.0,38.1,30.8,09.5,0000.0,0004.23,0001.18,0000.95
2021-11-05 07:01:00,,0824.1,5.00,0.00,29.0,28.2,00.0,38.1,30.8,09.8,0000.0,0003.99,0001.06,0000.87
2021-11-05 07:02:00,,0824.1,5.01,0.00,29.0,28.1,00.0,38.1,30.7,10.0,0000.0,0003.71,0000.97,0000.81
2021-11-05 07:03:00,,0824.1,4.99,0.00,29.0,28.1,00.0,38.1,30.7,10.2,0000.0,0002.32,0000.94,0000.78
2021-11-05 07:04:00,,0824.1,4.99,0.00,29.0,28.1,00.0,38.1,30.7,09.7,0000.0,0002.30,0000.93,0000.77
2021-11-05 07:05:00,,0824.1,5.01,0.00,29.0,28.1,00.0,38.1,30.7,09.4,0000.0,0001.86,0000.92,0000.77
2021-11-05 07:06:00,,0824.2,5.00,0.00,29.0,28.1,00.0,38.1,30.7,09.3,0000.0,0001.40,0000.92,0000.77
2021-11-05 07:07:00,,0824.1,4.99,0.00,29.0,28.1,00.0,38.1,30.7,09.4,0000.0,0001.35,0000.88,0000.74
2021-11-05 07:08:00,,0824.1,5.00,0.00,29.0,28.1,00.0,38.1,30.8,09.4,0000.0,0001.09,0000.82,0000.71
2021-11-05 07:09:00,,0824.1,5.00,0.00,29.0,28.1,00.0,38.1,30.7,09.4,0000.0,0001.21,0000.87,0000.71
2021-11-05 07:10:00,,0824.2,5.00,0.00,29.0,28.1,00.0,38.1,30.7,09.5,0000.0,0001.29,0000.90,0000.72
2021-11-05 07:11:00,,0824.2,5.00,0.00,29.0,28.1,00.0,38.1,30.7,09.5,0000.0,0001.28,0000.90,0000.73
2021-11-05 07:12:00,,0824.2,5.00,0.00,29.0,28.1,00.0,38.1,30.7,09.5,0000.0,0001.30,0000.91,0000.73
2021-11-05 07:13:00,,0824.3,4.99,0.00,29.0,28.1,00.0,38.1,30.8,09.5,0000.0,0001.31,0000.91,0000.73
2021-11-05 07:14:00,,0824.3,5.01,0.00,29.0,28.1,00.0,38.1,30.8,09.5,0000.0,0001.29,0000.89,0000.72
2021-11-05 07:15:00,,0824.3,5.01,0.00,29.0,28.1,00.0,38.1,30.8,09.6,0000.0,0001.28,0000.89,0000.72
2021-11-05 07:16:00,,0824.3,5.00,0.00,29.0,28.1,00.0,38.1,30.8,09.4,0000.0,0001.39,0000.93,0000.72
2021-11-05 07:17:00,,0824.3,5.00,0.00,29.0,28.1,00.0,38.1,30.8,09.2,0000.0,0001.40,0000.94,0000.72
2021-11-05 07:18:00,,0824.3,5.00,0.00,29.0,28.2,00.0,38.1,30.8,09.9,0000.0,0001.36,0000.93,0000.73
2021-11-05 07:19:00,,0824.2,5.00,0.00,29.0,28.2,00.0,38.1,30.8,10.1,0000.0,0001.43,0000.96,0000.74
2021-11-05 07:20:00,,0824.2,4.99,0.00,29.1,28.2,00.0,38.1,30.8,10.0,0000.0,0001.36,0000.93,0000.75
2021-11-05 07:21:00,,0824.3,5.01,0.00,29.1,28.2,00.0,38.1,30.8,09.9,0000.0,0001.31,0000.92,0000.75
2021-11-05 07:22:00,,0824.2,5.01,0.00,29.1,28.1,00.0,38.1,30.7,09.8,0000.0,0001.49,0000.97,0000.76
2021-11-05 07:23:00,,0824.3,4.99,0.00,29.1,28.1,00.0,38.1,30.8,09.2,0000.0,0001.57,0000.98,0000.76
2021-11-05 07:24:00,,0824.5,5.01,0.00,29.1,28.1,00.0,38.1,30.8,09.2,0000.0,0001.55,0000.97,0000.75
2021-11-05 07:25:00,,0824.3,5.00,0.00,29.1,28.1,00.0,38.1,30.8,09.2,0000.0,0001.55,0000.97,0000.74
2021-11-05 07:26:00,,0824.3,4.99,0.00,29.1,28.1,00.0,38.1,30.8,09.1,0000.0,0001.57,0000.97,0000.73
2021-11-05 07:27:00,,0824.2,5.01,0.00,29.1,28.1,00.0,38.1,30.8,09.2,0000.0,0001.49,0000.93,0000.73
2021-11-05 07:28:00,,0824.3,4.99,0.00,29.1,28.2,00.0,38.1,30.9,09.1,0000.0,0001.53,0000.93,0000.72
2021-11-05 07:29:00,,0824.2,5.01,0.00,29.1,28.2,00.0,38.1,30.9,09.3,0000.0,0001.69,0000.95,0000.71
2021-11-05 07:30:00,,0824.4,5.01,0.00,29.1,28.2,00.0,38.1,30.9,09.4,0000.0,0001.61,0000.91,0000.69
2021-11-05 07:31:00,,0824.3,5.00,0.00,29.1,28.2,00.0,38.1,30.9,09.3,0000.0,0001.57,0000.88,0000.68
2021-11-05 07:32:00,,0824.2,5.01,0.00,29.1,28.2,00.0,38.1,30.9,09.4,0000.0,0001.55,0000.86,0000.66
2021-11-05 07:33:00,,0824.2,5.00,0.00,29.1,28.3,00.0,38.2,30.9,09.4,0000.0,0001.42,0000.82,0000.64
2021-11-05 07:34:00,,0824.2,4.99,0.00,29.1,28.3,00.0,38.1,30.9,09.3,0000.0,0001.28,0000.78,0000.65
2021-11-05 07:35:00,,0824.1,5.00,0.00,29.2,28.3,00.0,38.2,31.0,09.2,0000.0,0001.39,0000.81,0000.65
2021-11-05 07:36:00,,0824.2,5.01,0.00,29.2,28.3,00.0,38.2,31.0,09.1,0000.0,0001.42,0000.83,0000.66
2021-11-05 07:37:00,,0824.1,5.00,0.00,29.2,28.3,00.0,38.2,30.9,09.2,0000.0,0001.39,0000.83,0000.68
2021-11-05 07:38:00,,0824.1,5.00,0.00,29.2,28.3,00.0,38.2,30.9,09.1,0000.0,0001.37,0000.84,0000.69
2021-11-05 07:39:00,,0824.1,5.00,0.00,29.2,28.3,00.0,38.2,30.9,09.2,0000.0,0001.42,0000.85,0000.69
2021-11-05 07:40:00,,0824.1,4.98,0.00,29.1,28.3,00.0,38.2,30.9,09.2,0000.0,0001.34,0000.84,0000.70
2021-11-05 07:41:00,,0824.1,5.00,0.00,29.1,28.3,00.0,38.2,30.8,09.2,0000.0,0001.31,0000.85,0000.71
2021-11-05 07:42:00,,0824.1,5.00,0.00,29.1,28.3,00.0,38.2,30.8,09.4,0000.0,0001.32,0000.85,0000.71
2021-11-05 07:43:00,,0824.1,5.01,0.00,29.1,28.3,00.0,38.2,30.9,09.3,0000.0,0001.46,0000.85,0000.72
2021-11-05 07:44:00,,0824.1,5.00,0.00,29.1,28.3,00.0,38.2,30.9,09.4,0000.0,0002.38,0000.89,0000.73
2021-11-05 07:45:00,,0824.1,5.00,0.00,29.1,28.3,00.0,38.2,30.9,09.5,0000.0,0002.33,0000.88,0000.73
2021-11-05 07:46:00,,0824.1,5.00,0.00,29.2,28.3,00.0,38.2,30.9,09.6,0000.0,0002.45,0000.91,0000.75
2021-11-05 07:47:00,,0824.0,4.99,0.00,29.2,28.3,00.0,38.2,30.9,09.5,0000.0,0002.49,0000.93,0000.76
2021-11-05 07:48:00,,0824.0,5.01,0.00,29.2,28.3,00.0,38.2,30.9,09.6,0000.0,0002.54,0000.94,0000.76
2021-11-05 07:49:00,,0824.0,4.99,0.00,29.2,28.3,00.0,38.2,30.9,09.7,0000.0,0002.54,0000.94,0000.76
2021-11-05 07:50:00,,0824.0,5.00,0.00,29.2,28.3,00.0,38.2,30.9,09.6,0000.0,0002.47,0000.93,0000.77
2021-11-05 07:51:00,,0824.0,5.01,0.00,29.2,28.3,00.0,38.2,30.9,09.6,0000.0,0002.41,0000.93,0000.78
2021-11-05 07:52:00,,0823.9,4.99,0.00,29.2,28.3,00.0,38.2,30.9,09.7,0000.0,0002.42,0000.95,0000.78
2021-11-05 07:53:00,,0823.9,5.02,0.00,29.2,28.3,00.0,38.2,30.9,09.8,0000.0,0002.50,0000.99,0000.80
2021-11-05 07:54:00,,0824.0,4.99,0.00,29.2,28.2,00.0,38.2,30.9,10.0,0000.0,0002.50,0001.01,0000.81
2021-11-05 07:55:00,,0824.0,5.00,0.00,29.2,28.2,00.0,38.2,30.9,10.1,0000.0,0001.53,0001.01,0000.82
2021-11-05 07:56:00,,0824.0,5.00,0.00,29.2,28.2,00.0,38.2,30.9,09.7,0000.0,0001.50,0001.00,0000.82
2021-11-05 07:57:00,,0823.9,5.00,0.00,29.2,28.2,00.0,38.2,30.9,09.6,0000.0,0001.35,0000.97,0000.82
2021-11-05 07:58:00,,0823.8,5.00,0.00,29.2,28.3,00.0,38.2,30.9,09.6,0000.0,0001.35,0000.94,0000.81
2021-11-05 07:59:00,,0823.8,5.00,0.00,29.2,28.3,00.0,38.2,30.9,09.6,0000.0,0001.35,0000.94,0000.81
